Location: Unspecified
(0.0000°N, 0.0000°E)
Time: 20:27:00
(UTC+00:00)

COSMOS 2251 DEB - Visible Passes

Search period start: 14 January 2025 00:00
Search period end: 24 January 2025 00:00
Orbit: 741 x 785 km, 74.1° (Epoch: 12 January)

Date Brightness Start Highest point End Pass type
(mag) Time Alt. Az. Time Alt. Az. Time Alt. Az.
14 Jan ? 18:31:52 10° S 18:36:45 41° ESE 18:41:40 10° NNE visible
14 Jan ? 20:17:19 10° W 20:18:26 11° WNW 20:19:32 10° WNW visible
15 Jan ? 19:35:46 10° SW 19:39:53 24° WNW 19:44:03 10° NNW visible
16 Jan ? 18:56:20 10° SSW 19:01:22 51° WNW 19:06:27 10° N visible
18 Jan ? 05:11:09 10° ENE 05:12:52 12° ENE 05:14:35 10° E visible
18 Jan ? 19:23:28 10° WSW 19:26:01 14° WNW 19:28:34 10° NW visible
19 Jan ? 18:42:59 10° SW 18:47:28 29° WNW 18:52:00 10° NNW visible
20 Jan ? 05:32:35 10° N 05:37:31 44° ENE 05:42:24 10° SSE visible
21 Jan ? 04:55:10 10° NNE 04:58:58 21° ENE 05:02:46 10° SE visible
22 Jan ? 18:30:14 10° WSW 18:33:35 17° WNW 18:36:57 10° NW visible
23 Jan ? 05:18:25 10° N 05:23:36 79° ENE 05:28:44 10° SSE visible
